User: anonymous   Login
Location: Unspecified
(0.0000°N, 0.0000°E)
Time: 09:10:16
(UTC+00:00)
Language:

SAUDISAT 4 - Orbit

View from above orbital plane
View from above orbital plane
View from above satellite
View from above satellite

Ground track
Ground track

The orbit data is extracted from the following two-line orbital elements,

1 40016U 14033G   18267.74339136 +.00000039 +00000-0 +13117-4 0  9991
2 40016 097.7985 145.3393 0047275 227.8992 131.8194 14.75203286229626
Epoch (UTC): 24 September 2018 17:50:29
Eccentricity: 0.0047275
inclination: 97.7985°
perigee height: 611 km
apogee height: 678 km
right ascension of ascending node: 145.3393°
argument of perigee: 227.8992°
revolutions per day: 14.75203286
mean anomaly at epoch: 131.8194°
orbit number at epoch: 22962

The dashed part of the orbit path shows where the satellite is in the earth's shadow,  

DLR